sat.trackr.live / text

‹ back to catalog

ONEWEB-0424

NORAD 50497 · 2021-132AE

PAYLOAD ACTIVE UNKNOWN

§ Identity

Operator
Country
UK
Launch date
2021-12-27
Launch site
TYMSC
Launch vehicle
Mass (kg)
RCS (m²)

Purposes: comms

External: N2YO · Heavens-Above · Gunter

§ Orbital elements

Epoch: 2026-05-25T01:26:51.959040Z

Period
109.20 min
Inclination
87.9167°
Eccentricity
0.0001713
Mean motion
13.18687845 rev/d
Perigee alt
1,188.4 km
Apogee alt
1,191.0 km
Semi-major
7,567.9 km
B*
-1.7628e-4
RAAN
340.0569°
Arg perigee
99.9664°
Mean anomaly
260.1661°
Rev number
21,859

§ Raw data

ONEWEB-04241 50497U 21132AE  26145.06032360 -.00000057  00000+0 -17628-3 0  99922 50497  87.9167 340.0569 0001713  99.9664 260.1661 13.18687845218595

JSON: /api/v1/satellites/50497 · /tle

For live sub-satellite position, see the globe view (requires WebGL).

§ Visibility from observer

Set your observer location to see the next 7 days of passes ≥ 10°. The values pass through the URL so the page stays shareable.

No JS? Fill the form by hand. The geolocation button needs JavaScript.